Flag for Canada Weather past 2 weeks in Guelph, Ontario, Canada

Now
28 °F

Overcast.


Feels Like: 23 °F
Forecast: 23 / 30 °F
Wind: 5 mph from South

Location: Waterloo Well

Current Time: Dec 21, 2014 at 2:27:08 PM

Latest Report: Dec 21, 2014 at 2:00 PM


Visibility: 9 mi

Pressure: 30.29 "Hg

Humidity: 74%

Dew point: 21 °F

Location of GuelphLocation

Historic Weather in Guelph — Graph

°F

Guelph temperature yesterday

Maximum temperature yesterday: 30 °F (at 2:00 PM)
Minimum temperature yesterday: 16 °F (at 7:00 AM)
Average temperature yesterday: 24 °F

Past Weeks' High & Low Weather Summary

 TemperatureHumidityPressure
High41 °F (Dec 16, 11:59 PM)100% (Dec 12, 11:00 PM)30.79 "Hg (Dec 12, 11:00 PM)
Low16 °F (Dec 20, 7:00 AM)40% (Dec 7, 1:00 PM)29.70 "Hg (Dec 16, 2:00 PM)
Average31 °F86%30.12 "Hg
* Reported Dec 6 1:00 PM — Dec 21 1:00 PM, Guelph, Weather by CustomWeather, © 2014

Note: Actual official high and low records may vary slightly from our data, if they occured in-between our weather recording intervals... More about our weather records

Advertising

Guelph weather history for previous 24 hours

 ConditionsComfort  
Time TempWeatherWind HumidityBarometerVisibility
1:00 PM
Dec 21
30 °FOvercast.5 mph69%30.31 "Hg9 mi
12:00 PM28 °FOvercast.2 mph74%30.32 "Hg9 mi
11:00 AM28 °FOvercast.5 mph80%30.34 "Hg9 mi
10:00 AM28 °FOvercast.3 mph80%30.33 "Hg9 mi
9:00 AM28 °FOvercast.2 mph80%30.33 "Hg9 mi
8:00 AM27 °FOvercast.5 mph86%30.33 "Hg9 mi
7:00 AM27 °FOvercast.3 mph86%30.33 "Hg9 mi
6:00 AM27 °FOvercast.3 mph86%30.31 "Hg9 mi
5:00 AM27 °FOvercast.3 mph86%30.30 "Hg9 mi
4:00 AM25 °FOvercast.5 mph93%30.30 "Hg9 mi
3:00 AM25 °FOvercast.5 mph86%30.30 "Hg9 mi
2:00 AM25 °FPassing clouds.5 mph86%30.28 "Hg9 mi
1:00 AM27 °FOvercast.5 mph80%30.28 "Hg9 mi
12:00 AM27 °FOvercast.3 mph86%30.29 "Hg9 mi
11:00 PM
Dec 20
27 °FOvercast.No wind86%30.29 "Hg9 mi
10:00 PM27 °FOvercast.3 mph86%30.29 "Hg9 mi
9:00 PM27 °FOvercast.5 mph86%30.30 "Hg9 mi
8:00 PM27 °FOvercast.6 mph86%30.30 "Hg9 mi
7:00 PM27 °FOvercast.3 mph86%30.30 "Hg9 mi
6:00 PM25 °FPassing clouds.6 mph86%30.29 "Hg9 mi
5:00 PM27 °FPassing clouds.6 mph80%30.27 "Hg9 mi
4:00 PM30 °FSunny.6 mph64%30.27 "Hg9 mi
3:00 PM30 °FSunny.6 mph64%30.26 "Hg9 mi
2:00 PM30 °FSunny.5 mph64%30.27 "Hg9 mi
Weather by CustomWeather, © 2014

See weather overviewHow to use our weather pages